Flag for U.S.A. Weather past 2 weeks in St. Petersburg, Florida, U.S.A.

Now
86 °F

Passing clouds.


Feels Like: 95 °F
Forecast: 82 / 88 °F
Wind: 10 mph from West

Location: Whitted Airport

Current Time: Jul 29, 2014 at 3:18:10 AM

Latest Report: Jul 29, 2014 at 2:53 AM


Visibility: 10 mi

Pressure: 29.96 "Hg

Humidity: 70%

Dew point: 75 °F

Location of St. PetersburgLocation

Historic Weather in St. Petersburg — Graph

°F

St. Petersburg temperature yesterday

Maximum temperature yesterday: 90 °F (at 1:53 PM)
Minimum temperature yesterday: 85 °F (at 1:53 AM)
Average temperature yesterday: 87 °F

Past Weeks' High & Low Weather Summary

 TemperatureHumidityPressure
High92 °F (Jul 21, 3:53 PM)94% (Jul 15, 7:04 AM)30.10 "Hg (Jul 15, 7:04 AM)
Low77 °F (Jul 16, 2:53 AM)54% (Jul 19, 4:53 PM)29.90 "Hg (Jul 16, 4:53 AM)
Average84 °F73%30.02 "Hg
* Reported Jul 14 1:53 AM — Jul 29 1:53 AM, St. Petersburg, Weather by CustomWeather, © 2014

Note: Actual official high and low records may vary slightly from our data, if they occured in-between our weather recording intervals... More about our weather records

Advertising

St. Petersburg weather history for previous 24 hours

 ConditionsComfort  
Time TempWeatherWind HumidityBarometerVisibility
1:53 AM
Jul 29
86 °FClear.9 mph70%29.96 "Hg10 mi
12:53 AM86 °FPartly cloudy.7 mph72%29.98 "Hg10 mi
11:53 PM
Jul 28
86 °FPassing clouds.10 mph70%29.99 "Hg10 mi
10:53 PM86 °FClear.10 mph70%30.00 "Hg10 mi
9:53 PM87 °FClear.8 mph67%29.99 "Hg10 mi
8:53 PM87 °FSunny.9 mph65%29.98 "Hg10 mi
7:53 PM87 °FBroken clouds.10 mph69%29.97 "Hg10 mi
6:53 PM88 °FBroken clouds.12 mph63%29.98 "Hg10 mi
5:53 PM89 °FScattered clouds.14 mph59%29.98 "Hg10 mi
4:53 PM89 °FScattered clouds.13 mph61%29.99 "Hg10 mi
3:53 PM88 °FScattered clouds.14 mph63%30.01 "Hg10 mi
2:53 PM88 °FScattered clouds.16 mph63%30.02 "Hg10 mi
1:53 PM90 °FScattered clouds.14 mph57%30.04 "Hg10 mi
12:53 PM89 °FPassing clouds.13 mph59%30.05 "Hg10 mi
11:53 AM89 °FScattered clouds.13 mph57%30.05 "Hg10 mi
10:53 AM88 °FPassing clouds.12 mph63%30.05 "Hg10 mi
9:53 AM87 °FScattered clouds.10 mph65%30.06 "Hg10 mi
8:53 AM86 °FSunny.8 mph67%30.05 "Hg10 mi
7:53 AM85 °FPassing clouds.6 mph70%30.06 "Hg10 mi
6:53 AM85 °FClear.5 mph72%30.05 "Hg10 mi
5:53 AM85 °FClear.6 mph70%30.03 "Hg10 mi
4:53 AM85 °FClear.6 mph72%30.01 "Hg10 mi
3:53 AM85 °FClear.6 mph70%30.01 "Hg10 mi
Weather by CustomWeather, © 2014

See weather overviewHow to use our weather pages